New Castle, PA

10:06 AM EDT on August 19, 2017 (GMT -0400)
New Castle Municipal

Weather History for KUCP - September, 2013

Change the Weather History Date:

Friday, September 13, 2013

  Actual Average Record
Temperature  
Mean Temperature 56 °F -  
Max Temperature 61 °F 77 °F 96 °F (1952)
Min Temperature 50 °F 52 °F 32 °F (1964)
Degree Days  
Heating Degree Days 9    
Growing Degree Days 6 (Base 50)    
Moisture  
Dew Point 53 °F    
Average Humidity 90    
Maximum Humidity 100    
Minimum Humidity 58    
Precipitation  
Precipitation 0.14 in - - ()
Sea Level Pressure  
Sea Level Pressure 29.94 in    
Wind  
Wind Speed 3 mph (NW)    
Max Wind Speed 16 mph    
Max Gust Speed 20 mph    
Visibility 7 miles    
Events Fog , Rain    
Averages and records for this station are not official NWS values.
T = Trace of Precipitation, MM = Missing Value Source: NWS Daily Summary

Daily Weather History Graph

Daily Weather History Graph

Search for Another Location

Airport or City:

Trip Planner

Search our weather history database for the weather conditions in past years. The results will help you decide how hot, cold, wet, or windy it might be!

Date:

Astronomy

Sep. 13, 2013 Rise Set
Actual Time 7:00 AM EDT 7:33 PM EDT
Civil Twilight 6:32 AM EDT 8:01 PM EDT
Nautical Twilight 6:00 AM EDT 8:33 PM EDT
Astronomical Twilight 5:26 AM EDT 9:07 PM EDT
Moon 3:24 PM EDT (9/13) 12:26 AM EDT (9/13)
Length of Visible Light 13h 28m
Length of Day
12h 33m
First Quarter, 61% of the Moon is Illuminated
Sep 13
First Quarter
Sep 19
Full
Sep 26
Last Quarter
Oct 4
New
Oct 11
First Quarter

Hourly Weather History & Observations

Time (EDT) Temp. Dew Point Humidity Pressure Visibility Wind Dir Wind Speed Gust Speed Precip Events Conditions
12:56 AM 57.9 °F 57.9 °F 100% 29.92 in 7.0 mi Calm Calm - 0.07 in Rain Light Rain
1:11 AM 57.2 °F 57.2 °F 100% 29.89 in 6.0 mi WSW 4.6 mph - 0.01 in Rain Light Rain
1:56 AM 57.2 °F 57.2 °F 100% 29.89 in 3.0 mi Calm Calm - N/A Rain Light Rain
2:32 AM 57.2 °F 57.2 °F 100% 29.88 in 2.5 mi Calm Calm - 0.05 in Rain Light Rain
2:38 AM 57.2 °F 57.2 °F 100% 29.88 in 3.0 mi Calm Calm - 0.06 in Rain Light Rain
2:56 AM 57.9 °F 57.9 °F 100% 29.91 in 10.0 mi Calm Calm - 0.06 in   Mostly Cloudy
3:14 AM 57.2 °F 57.2 °F 100% 29.87 in 8.0 mi Calm Calm - 0.00 in   Mostly Cloudy
3:40 AM 55.4 °F 55.4 °F 100% 29.87 in 1.8 mi Calm Calm - 0.00 in   Mostly Cloudy
3:43 AM 55.4 °F 55.4 °F 100% 29.87 in 1.0 mi Calm Calm - 0.00 in   Mostly Cloudy
3:45 AM 55.4 °F 55.4 °F 100% 29.87 in 0.8 mi Calm Calm - 0.00 in   Mostly Cloudy
3:56 AM 55.9 °F 55.9 °F 100% 29.91 in 0.8 mi Calm Calm - 0.00 in   Mostly Cloudy
4:01 AM 55.4 °F 55.4 °F 100% 29.87 in 0.5 mi Calm Calm - N/A Fog Fog
4:10 AM 55.4 °F 55.4 °F 100% 29.88 in 0.2 mi Calm Calm - N/A Fog Fog
4:31 AM 55.4 °F 55.4 °F 100% 29.88 in 0.5 mi Calm Calm - N/A Fog Fog
4:34 AM 55.4 °F 55.4 °F 100% 29.88 in 1.0 mi Calm Calm - N/A   Mist
4:36 AM 55.4 °F 55.4 °F 100% 29.88 in 1.5 mi Calm Calm - N/A   Mostly Cloudy
4:40 AM 55.4 °F 55.4 °F 100% 29.88 in 3.0 mi Calm Calm - 0.01 in   Scattered Clouds
4:56 AM 54.9 °F 54.9 °F 100% 29.91 in 9.0 mi Calm Calm - 0.01 in   Partly Cloudy
5:56 AM 54.9 °F 54.9 °F 100% 29.92 in 10.0 mi Calm Calm - N/A   Scattered Clouds
6:56 AM 55.9 °F 55.9 °F 100% 29.93 in 10.0 mi WNW 3.5 mph - 0.00 in   Mostly Cloudy
7:26 AM 55.4 °F 55.4 °F 100% 29.91 in 10.0 mi West 4.6 mph - N/A   Overcast
7:56 AM 55.4 °F 55.4 °F 100% 29.91 in 10.0 mi West 3.5 mph - N/A   Overcast
7:59 AM 55.4 °F 55.4 °F 100% 29.91 in 10.0 mi West 4.6 mph - N/A   Overcast
8:02 AM 55.4 °F 55.4 °F 100% 29.91 in 10.0 mi WNW 4.6 mph - N/A   Overcast
8:18 AM 57.2 °F 55.4 °F 94% 29.91 in 10.0 mi West 5.8 mph - N/A   Mostly Cloudy
8:56 AM 56.8 °F 55.9 °F 97% 29.96 in 10.0 mi West 5.8 mph - N/A   Mostly Cloudy
9:29 AM 57.2 °F 55.4 °F 94% 29.91 in 10.0 mi WNW 8.1 mph - N/A   Mostly Cloudy
9:56 AM 59.0 °F 55.9 °F 90% 29.96 in 10.0 mi NW 11.5 mph - N/A   Overcast
10:10 AM 57.2 °F 55.4 °F 94% 29.93 in 10.0 mi North 6.9 mph - N/A   Mostly Cloudy
10:48 AM 60.8 °F 55.4 °F 82% 29.94 in 10.0 mi North 10.4 mph - N/A   Mostly Cloudy
10:56 AM 60.8 °F 53.6 °F 77% 29.93 in 10.0 mi NNE 13.8 mph 18.4 mph N/A   Mostly Cloudy
11:56 AM 57.9 °F 50.9 °F 77% 30.00 in 10.0 mi North 10.4 mph 16.1 mph N/A   Overcast
12:10 PM 57.2 °F 51.8 °F 82% 29.96 in 10.0 mi NNW 16.1 mph 19.6 mph 0.00 in Rain Light Rain
12:22 PM 55.4 °F 51.8 °F 88% 29.96 in 6.0 mi NNW 12.7 mph 17.3 mph 0.00 in   Haze
12:56 PM 59.0 °F 50.0 °F 72% 30.01 in 10.0 mi North 10.4 mph 19.6 mph 0.00 in   Mostly Cloudy
1:56 PM 60.8 °F 46.4 °F 59% 29.96 in 10.0 mi NW 12.7 mph 19.6 mph N/A   Mostly Cloudy
2:56 PM 61.0 °F 45.9 °F 58% 30.00 in 10.0 mi NW 12.7 mph - N/A   Mostly Cloudy
3:56 PM 59.0 °F 45.9 °F 62% 30.01 in 10.0 mi North 15.0 mph 18.4 mph N/A   Mostly Cloudy
4:56 PM 57.2 °F 44.6 °F 63% 29.99 in 10.0 mi North 11.5 mph 18.4 mph N/A   Mostly Cloudy
5:56 PM 55.9 °F 45.0 °F 67% 30.05 in 10.0 mi North 9.2 mph - 0.00 in   Mostly Cloudy
6:56 PM 54.9 °F 45.0 °F 69% 30.07 in 10.0 mi North 9.2 mph - N/A   Mostly Cloudy
7:56 PM 53.6 °F 46.4 °F 77% 30.03 in 10.0 mi Calm Calm - N/A   Mostly Cloudy
8:56 PM 52.0 °F 45.9 °F 80% 30.10 in 10.0 mi NW 6.9 mph - N/A   Overcast
9:56 PM 52.0 °F 45.9 °F 80% 30.11 in 10.0 mi NW 6.9 mph - N/A   Overcast
10:56 PM 51.8 °F 46.4 °F 82% 30.07 in 10.0 mi NW 5.8 mph - N/A   Overcast
11:56 PM 50.9 °F 46.9 °F 86% 30.12 in 10.0 mi Calm Calm - N/A   Overcast